FW1492 Weather Reports


time (UTC)temp
F
wind
direction
speed
knots
gust
knots
rain 1hr
in
rain 24hr
in
rain mn
in
humidity
%
barometer
mb
20260507043006 47 323 2.6 8.7 0.00 0.21 0.00 92 1010.2
20260507041503 47 323 2.6 7.0 0.00 0.21 0.00 93 1010.0
20260507040111 47 319 2.6 5.2 0.00 0.21 0.00 93 1009.9
20260507034609 47 331 1.7 6.1 0.00 0.21 0.21 93 1009.7
20260507033104 47 347 3.5 7.8 0.00 0.21 0.21 92 1009.8
20260507031618 47 297 2.6 7.0 0.00 0.21 0.21 92 1009.7
20260507030056 48 332 2.6 7.8 0.00 0.21 0.21 92 1009.7
20260507024653 48 338 2.6 7.0 0.00 0.21 0.21 92 1009.8
20260507023051 48 304 3.5 7.8 0.00 0.21 0.21 92 1009.8
20260507021549 49 328 3.5 7.0 0.00 0.21 0.21 93 1010.3
20260507020047 49 17 2.6 7.0 0.00 0.21 0.21 93 1010.2
20260507014550 50 301 2.6 10.4 0.00 0.21 0.21 94 1010.0
20260507013049 51 10 4.3 8.7 0.00 0.21 0.21 94 1009.7
20260507011538 52 322 2.6 7.8 0.01 0.21 0.21 95 1009.6
20260507010045 53 329 1.7 6.1 0.05 0.21 0.21 95 1009.4
20260507004532 53 334 2.6 6.1 0.05 0.21 0.21 95 1009.2
20260507003030 54 339 3.5 7.8 0.05 0.21 0.21 94 1008.8
20260507001530 56 20 4.3 11.3 0.04 0.20 0.20 93 1008.5
20260507000023 58 247 0.9 2.6 0.00 0.16 0.16 96 1007.9
20260506234530 58 233 0.9 3.5 0.00 0.16 0.16 96 1008.0
20260506233022 58 212 0.0 2.6 0.00 0.16 0.16 96 1007.7
20260506231527 58 227 0.9 3.5 0.00 0.16 0.16 96 1007.6
20260506230026 58 262 0.9 3.5 0.00 0.16 0.16 96 1007.7
20260506224521 58 229 0.9 4.3 0.00 0.16 0.16 96 1007.6
20260506223020 58 266 0.9 4.3 0.00 0.16 0.16 96 1007.4
20260506221520 58 230 0.9 3.5 0.00 0.16 0.16 96 1007.3
20260506220024 58 253 0.9 7.0 0.00 0.16 0.16 96 1007.1
20260506214518 58 284 0.9 4.3 0.00 0.16 0.16 96 1006.9
20260506213017 58 256 0.9 3.5 0.00 0.16 0.16 96 1007.1
20260506211524 58 311 0.9 4.3 0.00 0.16 0.16 96 1006.9
20260506210025 57 218 1.7 6.1 0.00 0.16 0.16 96 1006.7
20260506204516 57 270 2.6 5.2 0.00 0.16 0.16 96 1006.6
20260506203014 57 236 2.6 0.0 0.00 0.00 0.16 96 1006.4
20260506201516 57 240 0.9 3.5 0.01 0.16 0.16 95 1006.6
20260506200030 57 240 0.9 5.2 0.02 0.16 0.16 95 1006.6
20260506194513 58 212 0.9 5.2 0.04 0.16 0.16 96 1006.9
20260506193009 57 222 2.6 6.1 0.06 0.16 0.16 95 1007.2
20260506191509 58 249 1.7 4.3 0.06 0.15 0.15 95 1007.3
20260506190007 58 165 0.9 2.6 0.06 0.14 0.14 95 1007.2
20260506184506 58 222 0.9 3.5 0.03 0.11 0.11 95 1007.5
20260506183006 58 228 0.9 3.5 0.02 0.10 0.10 95 1007.5
20260506181505 57 231 1.7 4.3 0.02 0.09 0.09 95 1007.5
20260506180014 57 243 1.7 5.2 0.01 0.08 0.08 94 1007.6
20260506174503 57 128 0.9 6.1 0.02 0.08 0.08 94 1007.7
20260506173003 57 212 1.7 5.2 0.02 0.08 0.08 94 1007.8
20260506171611 58 198 2.6 5.2 0.03 0.07 0.07 94 1007.5
20260506170112 58 179 1.7 8.7 0.05 0.07 0.07 94 1007.5
20260506164614 58 214 1.7 5.2 0.04 0.06 0.06 93 1007.7
20260506163102 59 204 1.7 5.2 0.04 0.06 0.06 93 1007.7
20260506161554 59 188 2.6 5.2 0.03 0.04 0.04 92 1008.2
20260506160105 59 165 0.9 3.5 0.02 0.02 0.02 92 1008.4
20260506154553 60 186 0.9 4.3 0.02 0.02 0.02 91 1008.7
20260506153048 60 226 0.9 4.3 0.02 0.02 0.02 91 1008.5
20260506151549 60 217 0.9 2.6 0.01 0.01 0.01 89 1008.7
20260506150046 61 211 0.9 5.2 0.00 0.00 0.00 86 1009.0
20260506144545 61 193 1.7 5.2 0.00 0.00 0.00 84 1009.1
20260506143044 61 207 0.9 4.3 0.00 0.00 0.00 84 1009.0
20260506141603 61 212 0.9 4.3 0.00 0.00 0.00 84 1008.8
20260506140044 61 202 0.9 3.5 0.00 0.00 0.00 83 1008.8
20260506134543 62 243 2.6 5.2 0.00 0.00 0.00 83 1009.1
20260506133042 62 205 1.7 5.2 0.00 0.00 0.00 82 1009.1
20260506131543 62 229 1.7 5.2 0.00 0.00 0.00 83 1009.0
20260506130041 61 212 1.7 5.2 0.00 0.00 0.00 84 1009.0
20260506124640 61 207 1.7 5.2 0.00 0.00 0.00 84 1008.8
20260506123043 61 223 0.9 5.2 0.00 0.00 0.00 85 1008.9
20260506121538 60 176 2.6 5.2 0.00 0.00 0.00 85 1008.9
20260506120104 60 204 1.7 5.2 0.00 0.00 0.00 86 1009.2
20260506114536 60 168 1.7 5.2 0.00 0.00 0.00 86 1009.1
20260506113036 60 221 2.6 6.1 0.00 0.00 0.00 86 1009.1
20260506111539 60 202 1.7 5.2 0.00 0.00 0.00 87 1009.0
20260506110035 60 225 0.9 4.3 0.00 0.00 0.00 87 1009.0
20260506104533 60 213 0.9 6.1 0.00 0.00 0.00 87 1008.8
20260506103035 60 210 1.7 4.3 0.00 0.00 0.00 87 1008.9
20260506101533 60 208 0.9 4.3 0.00 0.00 0.00 87 1008.7
20260506100033 60 172 2.6 5.2 0.00 0.00 0.00 87 1008.8
20260506094535 60 210 1.7 5.2 0.00 0.00 0.00 86 1008.7
20260506093041 60 205 2.6 4.3 0.00 0.00 0.00 86 1008.7
20260506091527 60 221 1.7 4.3 0.00 0.00 0.00 86 1008.8
20260506090025 60 203 2.6 6.1 0.00 0.00 0.00 85 1008.8
20260506084522 60 195 2.6 5.2 0.00 0.00 0.00 84 1008.8
20260506083020 61 217 1.7 3.5 0.00 0.00 0.00 83 1009.0
20260506081518 61 185 2.6 4.3 0.00 0.00 0.00 81 1009.0
20260506073013 62 211 2.6 5.2 0.00 0.00 0.00 76 1009.1
20260506071510 63 192 1.7 5.2 0.00 0.00 0.00 75 1009.2
20260506061503 64 214 2.6 6.1 0.00 0.00 0.00 71 1009.6
20260506050103 64 211 2.6 6.1 0.00 0.00 0.00 71 1010.0
20260506044559 64 207 2.6 5.2 0.00 0.00 0.00 71 1010.3